CW4525 Weather Reports


Display with metric or nautical units.
time (UTC)temp
F
wind
direction
speed
MPH
gust
MPH
rain 1hr
in
rain 24hr
in
rain mn
in
humidity
%
barometer
mb
20260508140055 50 262 8.0 13.0 0.00 0.00 0.00 45 1005.8
20260508134548 50 246 6.0 14.0 0.00 0.00 0.00 46 1005.8
20260508133051 50 194 7.0 16.0 0.00 0.00 0.00 46 1005.8
20260508131552 50 242 11.0 18.0 0.00 0.00 0.00 46 1005.8
20260508130044 48 279 9.0 19.0 0.00 0.00 0.00 47 1005.8
20260508124540 48 242 9.0 18.0 0.00 0.00 0.00 48 1005.8
20260508123038 47 249 8.0 18.0 0.00 0.00 0.00 52 1006.0
20260508121534 46 294 6.0 14.0 0.00 0.00 0.00 54 1005.8
20260508120037 45 261 7.0 13.0 0.00 0.00 0.00 57 1005.8
20260508114528 45 275 7.0 13.0 0.00 0.00 0.00 58 1005.8
20260508113026 42 275 4.0 10.0 0.00 0.00 0.00 64 1005.7
20260508111521 40 246 5.0 9.0 0.00 0.00 0.00 67 1005.7
20260508110020 39 263 5.0 10.0 0.00 0.00 0.00 68 1005.5
20260508104518 39 246 6.0 10.0 0.00 0.00 0.00 68 1005.4
20260508103026 39 212 5.0 8.0 0.00 0.00 0.00 68 1005.2
20260508101518 39 252 3.0 7.0 0.00 0.00 0.00 67 1004.9
20260508100012 39 229 4.0 7.0 0.00 0.00 0.00 67 1004.7
20260508094510 39 222 4.0 7.0 0.00 0.00 0.00 67 1004.7
20260508093009 38 241 4.0 7.0 0.00 0.00 0.00 67 1004.5
20260508091508 38 232 3.0 7.0 0.00 0.00 0.00 68 1004.4
20260508090008 38 190 3.0 8.0 0.00 0.00 0.00 68 1004.3
20260508084505 38 244 3.0 6.0 0.00 0.00 0.00 67 1004.2
20260508083004 38 235 4.0 8.0 0.00 0.00 0.00 68 1004.4
20260508081502 38 209 5.0 9.0 0.00 0.00 0.00 68 1004.2
20260508080001 38 245 3.0 8.0 0.00 0.00 0.00 69 1004.0
20260508074600 38 237 5.0 7.0 0.00 0.00 0.00 69 1003.7
20260508073055 38 241 2.0 5.0 0.00 0.00 0.00 70 1003.7
20260508071554 39 240 1.0 4.0 0.00 0.00 0.00 69 1003.6
20260508070053 39 238 1.0 3.0 0.00 0.00 0.00 69 1003.6
20260508064556 39 238 1.0 3.0 0.00 0.00 0.00 69 1003.7
20260508063050 39 238 1.0 3.0 0.00 0.00 0.00 69 1003.6
20260508061554 40 238 0.0 4.0 0.00 0.00 0.00 67 1003.6
20260508060045 40 235 2.0 4.0 0.00 0.00 0.00 66 1003.9
20260508054544 41 233 0.0 0.0 0.00 0.00 0.00 65 1004.1
20260508053040 41 233 0.0 0.0 0.00 0.00 0.00 65 1004.2
20260508051538 42 233 1.0 4.0 0.00 0.00 0.00 64 1004.3
20260508050040 42 244 1.0 5.0 0.00 0.00 0.00 62 1004.3
20260508044534 42 244 1.0 4.0 0.00 0.01 0.00 62 1004.5
20260508043032 43 244 0.0 2.0 0.00 0.01 0.00 61 1004.6
20260508041530 44 244 0.0 4.0 0.00 0.01 0.00 60 1004.6
20260508040036 44 259 1.0 6.0 0.00 0.01 0.00 58 1004.6
20260508034528 45 225 1.0 4.0 0.00 0.01 0.01 57 1004.6
20260508033025 45 225 0.0 2.0 0.00 0.01 0.01 57 1004.6
20260508031529 46 221 1.0 6.0 0.00 0.01 0.01 56 1004.6
20260508030025 47 254 2.0 6.0 0.00 0.01 0.01 56 1004.6
20260508024528 47 264 1.0 5.0 0.00 0.02 0.01 54 1004.5
20260508023028 48 258 1.0 3.0 0.00 0.02 0.01 53 1004.5
20260508021522 48 265 3.0 7.0 0.00 0.02 0.01 52 1004.5
20260508020021 48 243 3.0 7.0 0.00 0.02 0.01 50 1004.1
20260508014540 49 257 4.0 7.0 0.00 0.02 0.01 49 1004.0
20260508013019 49 240 2.0 5.0 0.00 0.02 0.01 49 1003.7
20260508011521 50 275 3.0 7.0 0.00 0.02 0.01 46 1003.5
20260508010026 50 250 4.0 8.0 0.00 0.02 0.01 45 1003.4
20260508004523 50 271 4.0 9.0 0.00 0.02 0.01 44 1003.1
20260508003041 51 266 4.0 9.0 0.00 0.02 0.01 44 1002.9
20260508001517 51 247 5.0 10.0 0.00 0.02 0.01 43 1002.9
20260508000016 52 269 2.0 6.0 0.00 0.02 0.01 42 1002.9
20260507234514 53 298 3.0 10.0 0.00 0.02 0.01 40 1002.6
20260507233023 53 306 4.0 12.0 0.00 0.02 0.01 40 1002.5
20260507231513 54 296 6.0 13.0 0.00 0.02 0.01 38 1002.4
20260507230015 55 263 8.0 14.0 0.00 0.02 0.01 37 1002.4
20260507224515 55 283 6.0 13.0 0.00 0.02 0.01 37 1002.4
20260507223011 55 280 9.0 15.0 0.00 0.02 0.01 36 1002.4
20260507221510 56 257 8.0 14.0 0.00 0.02 0.01 36 1002.3
20260507220012 57 297 8.0 16.0 0.00 0.02 0.01 36 1002.2
20260507214512 57 302 8.0 16.0 0.00 0.02 0.01 35 1002.0
20260507213011 57 351 7.0 16.0 0.00 0.02 0.01 35 1001.8
20260507211508 57 360 6.0 15.0 0.00 0.02 0.01 35 1001.8
20260507210008 57 278 8.0 18.0 0.00 0.02 0.01 35 1001.8
20260507204506 58 296 9.0 16.0 0.00 0.03 0.01 33 1001.8
20260507203012 59 255 10.0 23.0 0.00 0.03 0.01 35 1001.8
20260507201505 59 355 6.0 18.0 0.00 0.03 0.01 33 1001.8
20260507200006 59 286 9.0 22.0 0.00 0.04 0.01 32 1001.8
20260507194503 61 259 8.0 19.0 0.00 0.04 0.01 34 1001.8
20260507193004 61 328 9.0 21.0 0.00 0.04 0.01 39 1001.8
20260507191559 60 313 7.0 21.0 0.00 0.04 0.01 35 1002.1
20260507190055 59 240 7.0 16.0 0.00 0.04 0.01 38 1002.3
20260507184554 57 292 3.0 20.0 0.00 0.06 0.01 40 1002.4
20260507183054 57 285 7.0 18.0 0.00 0.06 0.01 37 1002.7
20260507181553 57 286 8.0 15.0 0.00 0.06 0.01 38 1002.5
20260507180053 57 278 9.0 25.0 0.00 0.06 0.01 34 1002.8
20260507174552 58 248 9.0 22.0 0.00 0.07 0.01 39 1002.8
20260507173053 57 239 9.0 23.0 0.00 0.07 0.01 39 1002.6
20260507171554 57 284 7.0 23.0 0.00 0.07 0.01 39 1002.8
20260507170048 57 216 12.0 23.0 0.00 0.07 0.01 40 1002.9
20260507164547 56 323 8.0 19.0 0.00 0.07 0.01 42 1003.3
20260507163045 56 300 10.0 22.0 0.00 0.07 0.01 42 1003.3
20260507161545 56 262 11.0 23.0 0.00 0.07 0.01 41 1003.4
20260507160043 56 237 10.0 26.0 0.00 0.07 0.01 41 1003.3
20260507154539 56 246 10.0 19.0 0.00 0.07 0.01 45 1003.3
20260507153038 55 261 8.0 16.0 0.00 0.07 0.01 49 1003.6
20260507151537 55 250 8.0 21.0 0.00 0.07 0.01 49 1003.8
20260507150034 55 299 8.0 22.0 0.00 0.07 0.01 52 1003.9
20260507144534 54 218 8.0 22.0 0.00 0.07 0.01 56 1003.8
20260507143032 53 267 8.0 19.0 0.00 0.07 0.01 64 1003.8
20260507141526 54 279 8.0 20.0 0.00 0.07 0.01 65 1003.7